Погода в Тагбиларане

Филиппины     9°38′47″N   123°52′18″E
темп.,
°C
ветер,
м/с
пор.,
м/с
влажн.,
%
обл.,
%
осадки,
мм/ч
давл.,
гПа
погр.,
м
23 сентября, чт
чт2323:00+28ю337197 2.2 1012374
02:00+28ююз447459 2.4 1010586
05:00+27юв337976 1.2 1011132
08:00+27вюв227758 1.5 1013280
11:00+27з2275100 0.0 1012342
14:00+28ссз2271100 0.9 1009219
17:00+29ссв346997 0.8 1009375
20:00+28св457457 0.9 1011314
24 сентября, пт
пт2423:00+27св347991 2.4 1011160
02:00+28ссв237597 7.2 1009214
05:00+28ссв237592 2.7 1010199
08:00+28ссв227627 2.8 1011337
11:00+28сз227521 0.0 1010279
14:00+29ссз2366100 0.1 1007365
17:00+30ссв33725 0.0 1007484
20:00+28всв357932 0.6 1010243
25 сентября, сб
сб2523:00+28ссв337995 0.7 1009158
02:00+28с22775 1.8 1007288
05:00+27св22785 0.7 1008202
08:00+28в11777 0.8 1009253
11:00+28юз227618 0.1 1009299
14:00+29ююв117040 0.7 1006293
17:00+29ююз116825 0.4 1006288
20:00+28юв007348 1.9 100930
26 сентября, вс
вс2623:00+28вюв117465 1.1 1009134
02:00+28ююв1175100 1.3 1007143
05:00+28ююв227698 1.6 1008198
08:00+28юв117461 2.3 1009280
11:00+28ю227146 0.1 1009294
14:00+29ююз326782 0.2 1006355
17:00+29ю226845 0.6 1007341
20:00+28ююз2375100 2.5 1009128
27 сентября, пн
пн2723:00+29ю2271100 2.1 1009293
02:00+27юв2278100 2.1 1007288
05:00+27в228293 0.6 1007104
08:00+27всв117987 2.2 1009106
11:00+28ююз117373 1.1 1008266
14:00+29ююз2166100 1.3 1006287
17:00+29ююз226582 0.4 1006460
20:00+29ю227077 0.4 1008372